This is the latest recevied weather packets stored in our database for station/object NI4CE-10. If no packets are shown the sender has not sent any weather packets the latest 10 day(s).
| Time | Temp. | Humidity | Pressure | Rain* | Wind** | Luminosity | Snow |
|---|---|---|---|---|---|---|---|
| 1777648872 | 32.22° C | 100% | 1015.7 hPa | 0 mm | - | - | - |
| 1777648272 | 31.67° C | 100% | 1015.8 hPa | 0 mm | - | - | - |
| 1777647972 | 32.22° C | 100% | 1015.6 hPa | 0 mm | - | - | - |
| 1777647672 | 31.11° C | 100% | 1015.6 hPa | 0 mm | - | - | - |
| 1777647372 | 31.67° C | 100% | 1015.7 hPa | 0 mm | - | - | - |
| 1777647072 | 30.56° C | 100% | 1015.6 hPa | 0 mm | - | - | - |
| 1777646772 | 30° C | 100% | 1015.6 hPa | 0 mm | - | - | - |
| 1777646472 | 29.44° C | 100% | 1015.7 hPa | 0 mm | - | - | - |
| 1777646172 | 30.56° C | 100% | 1015.7 hPa | 0 mm | - | - | - |
| 1777645872 | 31.67° C | 100% | 1015.8 hPa | 0 mm | - | - | - |
| 1777645572 | 31.11° C | 100% | 1015.7 hPa | 0 mm | - | - | - |
| 1777645272 | 30.56° C | 100% | 1015.8 hPa | 0 mm | - | - | - |
| 1777644972 | 30.56° C | 100% | 1015.7 hPa | 0 mm | - | - | - |
| 1777644672 | 29.44° C | 100% | 1015.9 hPa | 0 mm | - | - | - |
| 1777644372 | 30.56° C | 100% | 1015.7 hPa | 0 mm | - | - | - |
| 1777644072 | 30.56° C | 100% | 1015.6 hPa | 0 mm | - | - | - |
| 1777643913 | 31.11° C | 100% | 1015.7 hPa | 0 mm | - | - | - |
| 1777643772 | 30.56° C | 100% | 1015.7 hPa | 0 mm | - | - | - |
| 1777643472 | 31.11° C | 100% | 1015.7 hPa | 0 mm | - | - | - |
| 1777643326 | 28.33° C | 100% | 1015.6 hPa | 0 mm | - | - | - |
| 1777643172 | 31.67° C | 100% | 1015.6 hPa | 0 mm | - | - | - |
| 1777642872 | 30.56° C | 100% | 1015.6 hPa | 0 mm | - | - | - |
| 1777642572 | 30.56° C | 100% | 1015.6 hPa | 0 mm | - | - | - |
| 1777642272 | 28.89° C | 100% | 1015.5 hPa | 0 mm | - | - | - |
| 1777641972 | 30° C | 100% | 1015.7 hPa | 0 mm | - | - | - |
* Rain latest hour (hover to see other rain measurements)
** Current wind speed in m/s (hover to see current wind gust speed)